Dewpoint
51 51 52 52 52 53 53 54 53 54 54 55 54 53 52 51 50 41 41 50 54 58 55 39 33 33 33 31 34 33 32 30 30 30 30 30 29 30 42 42 45 44 44 45 47
51 51 52 52 52 53 53 53 53 53 53 54 54 52 50 50 41 37 48 53 56 57 40 33 30 31 27 27 30 33 29 29 26 30 29 30 35 36 37 40 41 43 42 44 46
50 51 51 51 52 53 53 53 53 53 53 54 54 54 51 46 29 34 49 52 55 52 43 37 34 28 25 25 25 23 23 23 25 27 26 30 32 40 36 37 40 39 39 42 44
49 50 51 51 52 53 53 53 53 53 53 53 54 55 50 38 10 38 52 52 52 45 38 34 28 26 25 24 26 23 25 25 28 28 30 30 35 38 39 37 40 40 41 41 42
49 49 51 51 52 52 53 53 52 52 52 53 55 54 40 33 35 39 50 47 43 41 39 34 32 27 24 24 25 25 25 26 28 29 30 31 33 35 37 38 40 41 39 39 40
49 49 50 51 51 51 52 52 52 52 52 52 55 50 33 28 38 39 40 42 42 39 37 37 35 33 26 26 23 26 28 27 27 28 30 29 28 28 31 37 35 36 36 36 38
50 49 49 50 50 51 51 52 52 52 52 52 54 36 34 33 38 37 40 41 42 39 36 37 37 32 30 24 29 26 24 26 26 27 27 30 27 27 29 32 32 32 33 35 36
50 50 50 50 51 51 51 51 51 51 52 53 54 33 31 37 37 38 40 39 42 41 39 39 37 34 32 33 29 26 25 23 26 27 27 26 24 27 29 28 28 29 30 32 33
51 51 50 51 52 52 52 53 51 50 52 52 35 27 26 39 35 39 39 39 41 40 38 36 34 32 31 25 23 26 22 24 24 27 27 27 26 27 28 28 28 29 29 30 31
52 51 51 51 52 52 53 53 49 43 39 31 32 21 29 31 36 37 37 40 38 36 33 33 32 29 29 24 19 24 23 24 23 26 27 25 25 27 28 28 27 28 29 30 30
52 51 51 51 51 51 46 39 31 23 32 30 31 30 32 34 38 31 37 37 35 34 27 30 29 27 26 28 28 26 25 23 25 27 28 26 25 26 27 28 27 28 29 29 30
52 50 50 50 50 49 43 38 37 33 21 30 32 32 33 36 27 31 38 31 31 28 29 26 27 31 30 30 29 27 26 24 26 28 28 26 25 26 27 27 28 28 28 29 29
51 50 50 50 51 43 42 41 46 42 18 21 30 28 30 34 32 31 36 33 30 29 28 24 29 31 29 29 27 28 26 26 26 28 27 25 20 25 26 27 28 28 29 28 28
50 50 49 50 35 40 39 44 45 44 25 14 20 24 31 34 29 35 34 33 29 29 28 28 30 29 28 28 29 26 29 29 28 24 21 24 16 20 26 26 27 28 28 27 27
49 48 48 45 35 34 41 44 43 37 17 19 19 28 31 27 26 29 33 31 27 27 23 25 28 26 25 28 31 25 30 29 27 24 23 22 16 18 26 25 26 27 27 27 28
48 47 46 41 40 43 44 43 39 31 17 14 23 24 22 27 28 31 27 30 30 25 28 28 32 30 28 30 31 31 29 22 25 23 11 22 17 16 22 25 26 26 26 25 26
47 46 44 44 32 43 42 38 32 26 22 15 18 23 21 23 24 28 26 24 20 10 9 19 25 26 31 26 26 28 19 5 3 5 8 19 17 17 20 27 27 26 27 25 26
47 44 44 43 43 42 39 34 25 27 22 23 22 21 15 22 23 26 26 18 26 21 13 7 1 23 28 29 28 28 21 9 -12 5 9 19 18 18 27 28 28 28 28 24 25
48 43 42 42 42 41 35 28 32 30 23 21 20 16 17 21 21 22 24 24 24 24 7 6 9 27 26 28 27 23 18 25 13 11 14 16 19 21 28 27 28 28 28 24 25
42 40 41 43 41 37 34 31 29 26 22 20 22 17 16 16 19 20 21 26 25 28 25 17 5 21 25 29 28 27 28 12 12 -6 -7 9 12 17 23 25 26 26 27 24 25
41 39 42 42 40 32 28 29 29 24 25 21 23 19 10 16 17 16 17 26 27 29 27 21 13 13 24 20 22 25 21 24 21 18 3 2 3 19 23 25 25 25 27 25 25
41 34 42 41 32 24 27 30 26 26 28 21 23 18 18 17 17 17 18 21 28 29 25 26 19 8 8 24 28 25 24 24 7 -3 13 13 10 21 26 25 27 27 28 29 27
38 37 41 40 31 28 27 24 24 26 25 19 20 21 20 18 15 19 23 26 28 26 26 27 15 4 8 14 22 23 24 26 22 19 12 6 6 21 25 28 29 29 29 30 29
39 33 34 35 35 30 27 27 25 29 26 22 20 23 21 22 21 21 25 26 28 29 32 24 14 10 9 11 18 18 22 26 19 5 9 13 9 16 15 18 21 22 24 25 27
39 35 35 27 26 31 28 28 25 27 28 25 22 20 19 21 21 21 26 26 28 33 28 23 10 11 14 19 21 21 17 21 16 15 4 5 11 16 19 19 19 21 27 30 29
36 35 35 28 32 29 31 30 26 26 26 23 20 22 20 18 19 21 26 25 23 29 26 27 16 15 7 14 18 17 18 18 19 15 17 18 18 21 23 26 24 24 25 26 27
43 41 41 35 31 32 34 33 28 28 28 26 22 22 21 19 21 25 27 28 27 28 26 23 18 8 7 8 8 11 12 17 18 21 21 15 20 21 25 27 28 28 28 26 28
Lifted_Index
13 13 13 13 13 12 12 12 12 12 12 11 12 12 13 14 15 14 13 12 11 11 12 13 13 12 11 10 9 8 7 6 7 8 8 8 7 7 6 5 5 4 3 3 3
14 13 13 13 13 12 12 12 12 12 12 11 12 12 14 14 14 13 13 12 11 12 13 14 13 12 11 10 9 8 7 7 8 9 9 8 8 7 6 5 4 3 3 2 2
14 14 13 13 13 12 12 12 12 12 12 12 12 12 14 13 12 13 14 13 12 13 14 14 13 11 10 9 9 9 8 9 10 11 10 9 7 6 5 4 4 4 3 2 2
14 14 14 13 13 12 12 12 12 12 12 12 12 12 13 12 11 13 14 14 13 14 14 14 12 10 8 8 9 9 10 11 11 11 11 9 7 5 4 4 4 5 4 3 2
15 14 14 13 13 12 12 12 12 12 12 12 12 13 13 11 11 14 15 14 14 14 14 13 12 10 8 8 9 10 11 11 11 11 10 9 7 5 4 4 5 5 5 4 3
15 15 14 13 13 13 12 12 12 12 12 12 12 13 12 11 13 15 15 14 14 14 14 13 12 11 9 9 9 10 11 11 11 10 9 8 7 6 5 5 6 6 6 5 3
14 14 14 13 13 13 13 12 12 13 13 12 13 13 13 12 14 15 14 14 13 13 13 13 13 12 10 9 10 10 11 10 10 10 8 7 6 6 6 6 6 6 6 5 4
14 14 14 13 13 13 12 13 13 13 13 13 13 13 12 13 14 14 14 13 13 13 13 13 13 12 10 9 9 9 9 9 9 9 8 7 6 6 7 7 6 5 5 5 5
13 13 14 13 13 12 12 13 14 14 13 13 13 12 12 13 14 13 13 13 13 13 13 13 13 11 8 7 6 7 7 7 8 9 8 7 6 7 7 7 6 5 5 6 6
12 13 13 13 13 12 12 13 13 13 13 12 12 11 12 13 14 13 13 13 13 12 12 12 11 8 6 5 5 5 6 7 8 8 8 6 6 6 6 6 6 5 6 6 6
12 12 13 13 13 13 12 12 11 11 11 11 11 11 12 13 13 13 13 12 12 11 10 10 8 6 5 6 6 7 7 7 8 9 7 6 6 6 6 6 6 6 6 6 6
11 12 13 13 13 13 12 11 11 11 10 10 11 11 13 13 12 12 13 12 10 9 9 8 7 6 6 7 8 8 7 7 8 9 8 6 6 6 6 6 6 6 6 6 6
11 12 13 13 12 12 11 11 13 12 9 9 10 11 12 12 11 11 12 11 9 8 7 7 7 7 6 6 7 7 7 8 8 8 7 6 5 5 5 5 5 6 6 6 6
10 11 12 12 11 11 11 12 13 11 8 7 9 11 12 11 10 12 13 12 9 8 7 7 8 7 5 5 6 7 8 8 8 7 7 6 5 4 5 5 5 6 6 6 7
9 10 12 12 11 10 11 13 12 9 5 6 9 10 11 10 10 11 13 12 10 9 8 8 8 6 5 6 7 8 9 9 8 7 6 6 5 4 5 5 5 6 6 7 7
9 10 11 11 11 11 12 11 9 5 4 5 7 8 8 8 9 10 11 11 10 9 7 7 8 7 6 7 8 8 8 7 6 5 5 5 6 5 5 5 6 6 7 7 7
9 9 10 11 11 12 11 8 5 3 3 5 6 6 6 6 7 8 8 9 9 8 6 6 7 7 7 6 7 8 6 4 3 2 3 5 6 5 6 6 6 7 7 7 8
8 8 9 11 12 12 9 5 2 2 3 4 5 5 5 6 6 6 6 7 8 8 6 5 5 6 7 6 6 6 5 3 2 1 3 4 5 6 6 6 6 7 7 8 8
8 7 8 10 12 11 6 3 2 2 3 3 4 4 4 5 5 5 5 6 8 9 7 5 5 6 7 7 7 6 6 5 3 2 2 3 5 6 6 6 6 7 7 8 9
7 7 7 9 11 8 4 2 2 2 3 3 3 4 4 4 4 4 5 6 8 10 9 7 5 6 7 7 7 7 6 5 4 2 1 2 4 6 7 6 6 6 7 8 8
7 6 7 8 8 6 3 2 2 3 3 3 3 4 4 4 4 4 4 6 8 10 10 8 6 5 5 6 6 6 6 5 4 2 1 1 3 6 8 7 6 6 7 8 8
6 6 7 7 5 4 3 3 2 2 2 3 3 3 4 4 4 4 5 7 9 10 9 8 6 4 4 6 6 6 6 5 4 3 2 2 4 7 9 8 8 7 7 7 8
5 5 7 6 4 3 3 3 2 2 2 2 3 3 3 3 4 4 5 7 9 10 9 8 6 4 4 5 6 6 6 6 5 4 3 2 4 7 9 9 9 8 7 7 8
4 4 5 5 4 3 3 3 2 2 2 2 2 3 3 3 4 4 5 7 9 9 9 8 6 4 4 5 5 5 5 6 5 4 3 3 4 7 8 9 9 9 9 8 8
4 4 4 4 4 3 3 3 2 2 2 2 2 2 2 3 3 4 5 6 7 8 8 7 6 5 5 5 5 5 5 5 4 4 4 3 4 6 8 9 9 10 9 9 8
5 5 4 4 3 3 3 3 2 2 2 2 2 2 2 3 3 5 5 6 6 6 6 6 5 5 5 5 5 5 4 4 4 5 4 4 5 7 8 9 9 9 9 9 9
6 6 5 4 3 3 3 3 2 2 2 2 2 2 2 3 4 6 7 7 6 6 5 5 5 4 4 5 4 4 4 4 4 5 5 4 6 7 8 9 9 9 9 9 9